Showing default

COSMOS 1565, 15004

Orbit data source: Space-Track

COSMOS 1565, 15004 is a payload satellite owned by GUKOS (CIS) in LEO that was launched on Mon, 28 May 1984 UTC via a KOSMOS 11K65M launch vehicle from the Plesetsk Missile And Space Complex (PKMTR). Payload-class satellites include a variety of spacecraft equipped with specific instruments for various scientific and technological missions. These include communications satellites like Starlink; space stations such as the ISS; scientific satellites like the Hubble; Earth observation satellites from companies like Planet Labs, Umbra, and HawkEye 360; GPS; miniature CubeSats for education and research; and military/defense satellites.

Loading next visibility...
Identifier
15004, 1984-052G
Orbit
LEO
Last TLE update
8 hours ago
Origin
Manufacturer
NPO PM
Mission
Defense Communications
Bus & Motor
STRELA-1 11F625, Unknown motor
Mass
60 kg wet, 60 kg dry
Launch date (UTC)
1984-05-28 (41 years ago)
Launch vehicle
KOSMOS 11K65M
Launch site
Plesetsk Missile And Space Complex (PKMTR)
Object type
Payload
Rocket body
Debris
Shape & HBR
Sphere, 0.8 m
Radar Cross Section
0.588 m², Medium (>0.1 m² and < 1m²)

Expand to show TLE details & history

TLE from 8 hours ago
0 COSMOS 1565
1 15004U 84052G   25183.85969560 -.00000020  00000-0 -21125-4 0  9995
2 15004  74.0097 215.0767 0043264  33.5737 138.8897 12.55456431883306
Epoch: 2025-07-02T20:37Z
TLE epoch observation values (Epoch: 2025-07-02T20:37:57.699Z)
Latitude
6.86909°
Longitude
162.48295°
Altitude
1,469.072 km
Speed
7.117 km/s
True Right ascension
02h 12m 25s
True Declination
6° 49' 55"
Sunlit
Object was in daylight at epoch
Visualization orbit readout
Latitude
-69.10732°
Longitude
-64.34469°
Altitude
1,478.347 km
Speed
7.119 km/s
Apparent Right ascension
06h 43m 36s
Apparent Declination
-64° 49' 58"
Sunlit
Object is in daylight
Visualization observer readout
Local Sidereal Time
16:37:58
Azimuth
205.663° SW
Elevation
-59.218°
Doppler factor
1
Orbital elements
Apogee altitude
1,473.408 km
Perigee altitude
1,405.762 km
Semi-major axis
7,817.722 km
Eccentricity
0.00433
Inclination
74.0097°
RAAN
215.0767°
Arg. of periapsis
33.5737°
True anomaly
Unknown
Mean anomaly
138.8897°
Eccentric anomaly
Unknown
Mean motion
3.13995 °/min
Orbital period
114.65 mins
BSTAR
-0.000021125
Loading maneuver chart data...
Loading SW <> Apogee altitude chart data...
Loading historical data...
Loading historical data...
Loading historical data...
Loading historical data...
Loading historical data...
Loading historical data...
Loading historical data...

COSMOS 1565 Visibility forecast

Observer location: undefined°, undefined°

Span
Click to sort rows by Start time (UTC) header in descending order
Start Az.
Max El. time (UTC)
Max El. Az.
Max El.
End time (UTC)
End Az.
10 mins2025-07-03 05:28:32.970Z270.62° WNW2025-07-03 05:33:32.970Z308.783° NW17.885°2025-07-03 05:38:32.970Z348.385° N
11 mins2025-07-03 11:36:32.970Z11.088° NNE2025-07-03 11:41:32.970Z52.521° ENE20.925°2025-07-03 11:47:32.970Z98.769° ESE
15 mins2025-07-03 13:32:32.970Z339.48° N2025-07-03 13:39:32.970Z263.26° W44.88°2025-07-03 13:47:32.970Z166.393° S
7 mins2025-07-03 15:32:32.970Z292.421° WNW2025-07-03 15:35:32.970Z269.56° W14.909°2025-07-03 15:39:32.970Z240.893° WSW
14 mins2025-07-04 02:24:32.970Z167.525° S2025-07-04 02:31:32.970Z97.217° ESE36.369°2025-07-04 02:38:32.970Z31.925° NE
13 mins2025-07-04 04:22:32.970Z240.399° WSW2025-07-04 04:28:32.970Z299.601° NW31.525°2025-07-04 04:35:32.970Z3.423° NNE
|